Regional Weather Roundup
Issued by NWS Grand Forks, ND

Home | Current Version | Previous Version | Graphics & Text | Print | Product List | Glossary On
Versions: 1 2 3 4 5 6 7 8 9 10 11 12 13 14 15 16 17 18 19 20 21 22 23 24 25 26 27 28 29 30 31 32 33 34 35 36 37 38 39 40 41 42 43 44 45 46 47 48 49 50
000
ASUS43 KFGF 230831
RWRFGF
PRAIRIE TO PINES  WEATHER ROUNDUP
NATIONAL WEATHER SERVICE EASTERN NORTH DAKOTA/GRAND FORKS ND
300 AM CDT MON OCT 23 2017

 **SATELLITE DATA USED TO AUGMENT SKY COVER AT AUTOMATED STATIONS**
 *****  WEATHER ACROSS EASTERN NORTH DAKOTA  *****

CITY           SKY/WX    TMP DP  RH WIND       PRES   REMARKS
GRAND FORKS    CLOUDY    55  48  77 SW13      29.59R
GRAND FRKS AFB MOCLDY    54  42  64 W12       29.60R
DEVILS LAKE    FAIR      48  36  63 W16       29.66R
FARGO          FAIR      53  41  63 W13       29.65R
WAHPETON ARPT  NOT AVBL
$$

 ***** WEATHER ACROSS CENTRAL AND WESTERN NORTH DAKOTA  *****

CITY           SKY/WX    TMP DP  RH WIND       PRES   REMARKS
BISMARCK       CLOUDY    50  38  63 W14       29.83R
MINOT          FAIR      46  34  62 W22G32    29.77R
JAMESTOWN      FAIR      52  40  63 W20G28    29.71R
MINOT AFB      FAIR      44  34  69 NW25G33   29.75R
GARRISON         N/A     46  34  62 NW22G32   29.80R
WILLISTON        N/A    N/A N/A N/A MISG      29.91R
DICKINSON      FAIR      46  36  68 W26G35    29.90R
HETTINGER      FAIR      45  35  68 NW30G40   29.97R
$$

 *****  OTHER AIRPORT OBSERVATIONS IN OUR AREA  *****

CITY           SKY/WX    TMP DP  RH WIND       PRES   REMARKS
WALHALLA       FAIR     N/A N/A N/A W13G18    29.57R
GRAFTON AIRPOR NOT AVBL
VALLEY CITY AR NOT AVBL
CANDO          FAIR      45  37  76 W24       29.67R
CAVALIER APRT  FAIR      52  39  62 W18       29.56R
GWINNER        SUNNY     54  41  62 W12       29.73R
SHEYENNE NWR     N/A     56  42  58 W14       29.95S
ROLLA          FAIR      43  37  81 NW25      29.66R
 ***** THE ABOVE OBSERVATIONS ARE NON NWS ARE NOT QUALITY
       CONTROLLED AND MAY MIS-REPORT RAIN FOR SNOW...
$$

  *****  WEATHER ACROSS NORTHERN MINNESOTA  *****

CITY           SKY/WX    TMP DP  RH WIND       PRES   REMARKS
FLAG ISLAND    MOCLDY    52  43  71 SE9       29.54F
WARROAD        FAIR      50  37  62 S6        29.55S
ROSEAU         FAIR      54  39  58 MISG      29.54R
HALLOCK        FAIR      46  39  76 S7        29.56R
THF RVR FALLS  LGT RAIN  51  47  86 SW12      29.61R
BAUDETTE       CLOUDY    51  35  54 S10       29.58F
WASKISH        LGT RAIN  54  36  50 CALM      29.61S
CROOKSTON      DRIZZLE   50  48  93 W9        29.61S
STEPHEN NDAWN    N/A     55  39  54 SW8         N/A
GREENBUSH NDAW   N/A     48  45  87 SW15        N/A
$$
  *****  WEATHER ACROSS CENTRAL AND WEST MINNESOTA  *****

CITY           SKY/WX    TMP DP  RH WIND       PRES   REMARKS
FOSSTON        LGT RAIN  46  45  93 SW6       29.64R
BEMIDJI        MOCLDY    51  39  63 S6        29.62F
PARK RAPIDS    MOCLDY    52  37  56 S8        29.64F
ELBOW LAKE     CLOUDY    56  41  57 SW9       29.72R
WADENA         FAIR      54  37  54 SW10      29.67F
DETROIT LAKES  FAIR      54  39  58 W12G18    29.67R
MOORHEAD       FAIR      54  39  58 W10       29.67R
FERGUS FALLS   FAIR      57  43  58 W13G22    29.70R
MORRIS MN      CLOUDY    57  43  58 W13       29.72F
STAPLES        CLOUDY    52  34  50 S12       29.69F
$$
  *****  WEATHER ELSEWHERE ACROSS MINNESOTA  *****

CITY           SKY/WX    TMP DP  RH WIND       PRES   REMARKS
DULUTH         MOCLDY    51  34  52 S13       29.75F
INTRNTL FALLS  MOCLDY    53  33  46 S5        29.62F
ELY            FAIR      52  30  43 S10G16    29.71F
CLOQUET        CLOUDY    54  30  40 S8        29.75F
WHEATON        FAIR      61  39  44 W16G23    29.74R
BRAINERD       CLOUDY    54  34  46 S14       29.71F
HIBBING        CLOUDY    51  32  48 S10       29.71F
ALEXANDRIA     LGT RAIN  52  39  61 SW12      29.74S
SAINT CLOUD    CLOUDY    50  38  63 S8        29.77F
MINNEAPOLIS    MOCLDY    56  34  43 S10       29.83F
$$

  *****  WEATHER ACROSS SOUTH DAKOTA  *****

CITY           SKY/WX    TMP DP  RH WIND       PRES   REMARKS
SIOUX FALLS    FAIR      50  36  58 W5        29.84R
BROOKINGS      FAIR      46  36  68 W6        29.83R
WATERTOWN      FAIR      50  39  66 SW8       29.79R
HURON          FAIR      54  43  66 W12       29.85R
SISSETON         N/A     59  44  57 W17G24    29.72R
ABERDEEN       FAIR      53  43  68 W21G29    29.79R
MITCHELL       FAIR      53  38  56 NW13      29.87R
PIERRE         FAIR      54  44  69 W14       29.94R
MOBRIDGE       FAIR      53  40  61 W17G30    29.86R
RAPID CITY     FAIR      52  21  29 NW29G39   30.05R
$$

  *****  SOME WEATHER IN NEARBY STATES *****

CITY           SKY/WX    TMP DP  RH WIND       PRES   REMARKS
GLASGOW MT     FAIR      42  35  76 W15       30.03R
GREAT FALLS MT FAIR      45  22  40 W22G33    30.21R
CHEYENNE WY    FAIR      54  28  36 NW30G41   30.20S
SCOTTSBLUFF NE CLOUDY    55  33  43 N21G31    30.14R
OMAHA NE       FAIR      48  36  63 SE12      29.91F
DES MOINES IA  FAIR      46  41  82 S8        29.95F
DAVENPORT IA   FOG       45  45 100 CALM      30.01F VSB 1/2
CHICAGO IL     HVY RAIN  51  49  92 N10       29.95F FOG
EAU CLAIRE WI  CLOUDY    48  41  76 SW3       29.91R
LA CROSSE WI   FAIR      46  42  86 SE5       29.94F
$$

  *****  SOME NATIONAL WEATHER *****

CITY           SKY/WX    TMP DP  RH WIND       PRES   REMARKS
LA GUARDIA NY  MOCLDY    62  59  90 E5        30.32S
RALEIGH NC     FAIR      62  61  96 E7        30.22F
ATLANTA GA     CLOUDY    68  68 100 SE10      29.99F FOG
NEW ORLEANS LA FAIR      65  63  93 NW8       30.02S
OKLAHOMA CITY  FAIR      46  38  73 S5        30.09F
ALBUQUERQUE NM FAIR      57  23  26 N9        30.37F
SALT LAKE CITY FAIR      54  37  52 CALM      30.41S
LOS ANGELES CA FAIR      78  43  28 NE7       30.05F
BOISE ID       FAIR      44  42  93 CALM      30.48R
SEATTLE WA     FAIR      50  46  86 SE3       30.50R
$$

*** WEATHER ACROSS MANITOBA...SASKATCHEWAN AND ONTARIO ***
                ***ONTARIO***

CITY           SKY/WX    TMP DP  RH WIND       PRES   REMARKS
GERALDTON      PTCLDY    41  39  93 S7        29.81S
THUNDER BAY    CLOUDY    45  41  87 VRB2      29.79F
SIOUX LOOKOUT  CLOUDY    50  36  57 S7        29.61F
TORONTO        MOCLDY    61  54  77 SE6       30.05F
BIG TROUT LK   CLOUDY    41  37  87 W12G22    29.51R
PICKLE LAKE    NOT AVBL
DRYDEN         PTCLDY    50  36  57 S12       29.59F
KENORA         MOCLDY    48  39  71 S5        29.56F
$$
                *** MANITOBA***

CITY           SKY/WX    TMP DP  RH WIND       PRES   REMARKS
BRANDON        LGT RAIN  43  39  87 NW9       29.68R
DAUPHIN        CLEAR     39  36  87 NW10      29.72R
ISLAND LAKE    CLOUDY    39  34  81 W15G23    29.56
PILOT MOUND      N/A     45  36  70 NW12G17     N/A
THE PAS        CLOUDY    37  28  70 NW17      29.68R
THOMPSON       FLURRIES  32  30  93 NW9       29.54R WCI  24
WINNIPEG       CLOUDY    39  36  87 N5        29.55R
LYNN LAKE      CLOUDY    30  28  93 NW13G21   29.60R WCI  20
CHURCHILL      LGT SNOW  30  28  93 NW35G46   29.11R BLWGSNOWWCI  14
GILLAM         FLURRIES  34  28  80 W24G32    29.40R WCI  21
$$
                ***SASKATCHEWAN***

CITY           SKY/WX    TMP DP  RH WIND       PRES   REMARKS
ESTEVAN        PTCLDY    39  34  81 W14       29.84R
KINDERSLEY     PTCLDY    32  28  86 W7        29.96R
LLOYDMINSTER   CLOUDY    37  34  87 W14G20    29.88R
PRINCE ALBERT  CLOUDY    34  32  93 W8        29.82R FOG
REGINA         CLOUDY    39  37  93 NW15      29.87R
YORKTON        MOCLDY    36  36 100 W18G24    29.77R
N. BATTLEFORD  CLOUDY    41  36  81 W9        29.88R
LA RONGE       CLOUDY    34  30  86 W13       29.78R WCI  25
SASKATOON      MOCLDY    37  34  87 W9        29.87R
SWIFT CURRENT  MOCLDY    39  30  70 W15G22    29.97R
$$
NOTE: THESE ARE AUTOMATED STATIONS WITH LIMITED QUALITY CONTROL
      "FAIR" INDICATES FEW OR NO CLOUDS BELOW 12,000 FEET WITH NO
      SIGNIFICANT WEATHER AND/OR OBSTRUCTIONS TO VISIBILITY.
      SKY/WX - SKY CONDITION AND SIGNIFICANT WEATHER.
      TMP - AIR TEMPERATURE.    DP   - DEWPOINT TEMPERATURE.
      RH  - RELATIVE HUMIDITY.  PRES - PRESSURE.
      HX  - HEAT INDEX.         WCI  - WIND CHILL INDEX.
$



USA.gov is the U.S. government's official web portal to all federal, state and local government web resources and services.